, WY

(GMT )
South Pass

Weather History for KFWZ - November, 2012

Change the Weather History Date:

Wednesday, November 14, 2012

  Actual Average Record
Temperature  
Mean Temperature 28 °F -  
Max Temperature 32 °F - - ()
Min Temperature 23 °F - - ()
Degree Days  
Heating Degree Days 38    
Moisture  
Dew Point 23 °F    
Average Humidity 79    
Maximum Humidity 100    
Minimum Humidity 69    
Precipitation  
Precipitation 0.00 in - - ()
Sea Level Pressure  
Sea Level Pressure 30.09 in    
Wind  
Wind Speed 5 mph ()    
Max Wind Speed 20 mph    
Max Gust Speed 29 mph    
Visibility 9.7 miles    
Events Snow    
Averages and records for this station are not official NWS values.
T = Trace of Precipitation, MM = Missing Value Source: Averaged Metar Reports

Daily Weather History Graph

Daily Weather History Graph

Search for Another Location

Airport or City:

Trip Planner

Search our weather history database for the weather conditions in past years. The results will help you decide how hot, cold, wet, or windy it might be!

Date:

Astronomy

Nov. 14, 2012 Rise Set
Actual Time 7:05 AM MST 4:53 PM MST
Civil Twilight 6:35 AM MST 5:23 PM MST
Nautical Twilight 6:01 AM MST 5:57 PM MST
Astronomical Twilight 5:28 AM MST 6:30 PM MST
Moon 7:59 AM MST (11/14) 5:43 PM MST (11/14)
Length of Visible Light 10h 47m
Length of Day
9h 47m
New Moon, 1% of the Moon is Illuminated
Nov 14
New Moon
Nov 20
First Quarter
Nov 28
Full
Dec 6
Last Quarter
Dec 13
New

Hourly Weather History & Observations

Time (MST) Temp. Windchill Dew Point Humidity Pressure Visibility Wind Dir Wind Speed Gust Speed Precip Events Conditions
12:15 AM 23.0 °F 17.0 °F 21.2 °F 93% - 10.0 mi SE 4.6 mph - N/A   Overcast
12:35 AM 23.0 °F 17.0 °F 23.0 °F 100% - 10.0 mi South 4.6 mph - N/A   Overcast
1:15 AM 26.6 °F 21.2 °F 23.0 °F 86% - 10.0 mi ESE 4.6 mph - N/A   Overcast
1:35 AM 26.6 °F - 21.2 °F 80% - 10.0 mi Calm Calm - N/A   Overcast
1:55 AM 26.6 °F 21.2 °F 21.2 °F 80% - 10.0 mi NNE 4.6 mph - N/A   Overcast
2:15 AM 24.8 °F 19.1 °F 21.2 °F 86% - 10.0 mi East 4.6 mph - N/A   Overcast
2:35 AM 24.8 °F 17.9 °F 21.2 °F 86% - 10.0 mi SSE 5.8 mph - N/A   Overcast
2:55 AM 24.8 °F 20.5 °F 21.2 °F 86% - 10.0 mi South 3.5 mph - N/A   Overcast
3:15 AM 24.8 °F 19.1 °F 21.2 °F 86% - 10.0 mi South 4.6 mph - N/A   Scattered Clouds
3:35 AM 23.0 °F 15.8 °F 21.2 °F 93% - 10.0 mi SSE 5.8 mph - N/A   Scattered Clouds
3:55 AM 23.0 °F 17.0 °F 21.2 °F 93% - 10.0 mi SE 4.6 mph - N/A   Scattered Clouds
4:15 AM 23.0 °F 17.0 °F 21.2 °F 93% - 10.0 mi ESE 4.6 mph - N/A   Scattered Clouds
4:35 AM 26.6 °F - 21.2 °F 80% - 10.0 mi Calm Calm - N/A   Scattered Clouds
4:55 AM 26.6 °F 22.6 °F 21.2 °F 80% - 10.0 mi West 3.5 mph - N/A   Scattered Clouds
5:15 AM 26.6 °F 20.0 °F 21.2 °F 80% - 10.0 mi WNW 5.8 mph - N/A   Scattered Clouds
5:35 AM 28.4 °F 24.6 °F 21.2 °F 74% - 10.0 mi NW 3.5 mph - N/A   Clear
5:55 AM 28.4 °F 20.4 °F 19.4 °F 69% - 10.0 mi West 8.1 mph - N/A   Clear
6:15 AM 28.4 °F 24.6 °F 21.2 °F 74% - 10.0 mi WNW 3.5 mph - N/A   Clear
6:35 AM 28.4 °F 22.2 °F 21.2 °F 74% - 10.0 mi West 5.8 mph - N/A   Clear
6:55 AM 28.4 °F 21.2 °F 21.2 °F 74% - 10.0 mi NW 6.9 mph - N/A   Clear
7:15 AM 28.4 °F - 21.2 °F 74% - 10.0 mi Calm Calm - N/A   Clear
7:35 AM 28.4 °F 23.3 °F 21.2 °F 74% - 10.0 mi West 4.6 mph - N/A   Clear
7:55 AM 28.4 °F 22.2 °F 21.2 °F 74% - 10.0 mi West 5.8 mph - N/A   Clear
8:15 AM 30.2 °F - 21.2 °F 69% - 10.0 mi Calm Calm - N/A   Clear
8:35 AM 30.2 °F 23.4 °F 21.2 °F 69% 30.10 in 10.0 mi WNW 6.9 mph - N/A   Clear
8:55 AM 30.2 °F 26.7 °F 21.2 °F 69% 30.10 in 10.0 mi West 3.5 mph - N/A   Clear
9:15 AM 30.2 °F 22.6 °F 23.0 °F 75% 30.10 in 10.0 mi WSW 8.1 mph - N/A   Clear
9:35 AM 32.0 °F 23.6 °F 23.0 °F 69% 30.10 in 10.0 mi West 10.4 mph 16.1 mph N/A   Clear
10:15 AM 30.2 °F 19.3 °F 26.6 °F 86% 30.09 in 10.0 mi WSW 15.0 mph 21.9 mph N/A   Overcast
10:35 AM 30.2 °F 18.1 °F 26.6 °F 86% 30.08 in 5.0 mi WSW 18.4 mph 24.2 mph N/A Snow Light Snow
10:55 AM 30.2 °F 17.8 °F 26.6 °F 86% 30.08 in 2.5 mi WSW 19.6 mph 28.8 mph N/A   Mostly Cloudy
11:15 AM 30.2 °F 18.5 °F 26.6 °F 86% 30.08 in 10.0 mi WSW 17.3 mph 26.5 mph N/A   Scattered Clouds
11:35 AM 32.0 °F 22.1 °F 26.6 °F 80% 30.07 in 10.0 mi WSW 13.8 mph 21.9 mph N/A   Scattered Clouds
11:55 AM 32.0 °F 20.5 °F 24.8 °F 75% 30.06 in 10.0 mi WSW 18.4 mph 26.5 mph N/A   Scattered Clouds
12:15 PM 32.0 °F 20.1 °F 24.8 °F 75% 30.05 in 10.0 mi West 19.6 mph 26.5 mph N/A   Clear
12:35 PM 32.0 °F 21.2 °F 24.8 °F 75% 30.05 in 10.0 mi West 16.1 mph 26.5 mph N/A   Clear
12:55 PM 32.0 °F 20.8 °F 24.8 °F 75% 30.05 in 10.0 mi West 17.3 mph 28.8 mph N/A   Clear
1:15 PM 32.0 °F 21.2 °F 24.8 °F 75% 30.04 in 10.0 mi West 16.1 mph 26.5 mph N/A   Mostly Cloudy
1:35 PM 32.0 °F 23.0 °F 26.6 °F 80% 30.05 in 10.0 mi West 11.5 mph 23.0 mph N/A   Mostly Cloudy
1:55 PM 32.0 °F 23.6 °F 26.6 °F 80% 30.06 in 10.0 mi West 10.4 mph 26.5 mph N/A   Mostly Cloudy
2:15 PM 32.0 °F 28.7 °F 26.6 °F 80% 30.06 in 10.0 mi West 3.5 mph - N/A   Overcast
2:35 PM 32.0 °F 27.5 °F 26.6 °F 80% 30.06 in 10.0 mi SW 4.6 mph - N/A   Overcast
2:55 PM 32.0 °F 26.4 °F 26.6 °F 80% 30.07 in 10.0 mi NW 5.8 mph - N/A   Overcast
3:35 PM 32.0 °F 28.7 °F 26.6 °F 80% 30.07 in 10.0 mi WNW 3.5 mph - N/A   Overcast
3:55 PM 32.0 °F 27.5 °F 26.6 °F 80% 30.07 in 5.0 mi West 4.6 mph - N/A Snow Light Snow
4:35 PM 32.0 °F 25.6 °F 28.4 °F 87% 30.08 in 10.0 mi WNW 6.9 mph - N/A   Overcast
4:55 PM 32.0 °F 25.6 °F 28.4 °F 87% 30.09 in 10.0 mi NW 6.9 mph - N/A   Overcast
5:15 PM 30.2 °F 26.7 °F 26.6 °F 86% 30.09 in 10.0 mi WSW 3.5 mph - N/A   Overcast
5:35 PM 30.2 °F - 26.6 °F 86% 30.09 in 10.0 mi Calm Calm - N/A   Overcast
5:55 PM 30.2 °F 21.9 °F 24.8 °F 80% 30.09 in 10.0 mi SW 9.2 mph - N/A   Scattered Clouds
6:15 PM 30.2 °F 22.6 °F 24.8 °F 80% 30.09 in 10.0 mi SW 8.1 mph - N/A   Clear
6:35 PM 30.2 °F 25.4 °F 23.0 °F 75% 30.09 in 10.0 mi SW 4.6 mph - N/A   Mostly Cloudy
7:15 PM 30.2 °F 26.7 °F 23.0 °F 75% 30.10 in 10.0 mi WSW 3.5 mph - N/A   Clear
7:35 PM 30.2 °F - 21.2 °F 69% 30.11 in 10.0 mi Calm Calm - N/A   Clear
7:55 PM 30.2 °F 26.7 °F 23.0 °F 75% 30.12 in 10.0 mi West 3.5 mph - N/A   Scattered Clouds
8:15 PM 30.2 °F - 21.2 °F 69% 30.12 in 10.0 mi Calm Calm - N/A   Mostly Cloudy
8:35 PM 30.2 °F - 21.2 °F 69% 30.13 in 10.0 mi Calm Calm - N/A   Mostly Cloudy
8:55 PM 28.4 °F 23.3 °F 21.2 °F 74% 30.14 in 10.0 mi North 4.6 mph - N/A   Mostly Cloudy
9:15 PM 30.2 °F - 21.2 °F 69% 30.14 in 10.0 mi Calm Calm - N/A   Scattered Clouds
9:35 PM 30.2 °F 26.7 °F 21.2 °F 69% 30.15 in 10.0 mi North 3.5 mph - N/A   Clear
10:15 PM 28.4 °F - 21.2 °F 74% 30.15 in 10.0 mi Calm Calm - N/A   Clear
10:35 PM 28.4 °F 24.6 °F 21.2 °F 74% 30.16 in 10.0 mi North 3.5 mph - N/A   Clear
10:55 PM 28.4 °F - 21.2 °F 74% - 10.0 mi Calm Calm - N/A   Clear
11:15 PM 28.4 °F 24.6 °F 21.2 °F 74% - 10.0 mi NNE 3.5 mph - N/A   Clear
11:35 PM 26.6 °F 20.0 °F 21.2 °F 80% - 10.0 mi NNE 5.8 mph - N/A   Clear